Location: Newark
(52.3500°N, 175.9667°E)
Time: 12:02:26
(UTC+00:00)

Transit 4A - Visible Passes

Search period start: 18 April 2021 00:00
Search period end: 28 April 2021 00:00
Orbit: 869 x 975 km, 66.8° (Epoch: 17 April)

Date Brightness Start Highest point End Pass type
(mag) Time Alt. Az. Time Alt. Az. Time Alt. Az.
18 Apr 9.5 11:03:12 19° E 11:03:12 19° E 11:06:16 10° ENE visible
18 Apr 7.8 12:46:41 68° SSW 12:47:31 86° SE 12:53:38 10° NE visible
18 Apr 9.2 14:30:09 15° W 14:34:34 33° NNW 14:39:59 10° NNE visible
18 Apr 9.9 16:18:18 10° NW 16:22:45 20° N 16:27:08 10° NE visible
19 Apr 9.0 11:11:51 27° E 11:11:51 27° E 11:16:04 10° NE visible
19 Apr 7.9 12:55:19 52° WSW 12:56:53 74° NW 13:02:58 10° NE visible
19 Apr 9.5 14:38:57 10° W 14:44:12 28° NNW 14:49:21 10° NE visible
19 Apr 10.0 16:28:08 10° NW 16:32:33 20° N 16:36:53 10° NE visible
20 Apr 8.5 11:20:26 39° ESE 11:20:26 39° ESE 11:25:39 10° NE visible
20 Apr 8.3 13:03:55 36° WSW 13:06:17 58° NW 13:12:15 10° NE visible
20 Apr 9.7 14:48:56 10° WNW 14:53:53 25° NNW 14:58:45 10° NE visible
21 Apr 9.9 09:45:30 10° E 09:45:30 10° E 09:45:38 10° E visible
21 Apr 8.0 11:28:57 53° SE 11:29:13 53° ESE 11:35:07 10° NE visible
21 Apr 8.7 13:12:25 24° W 13:15:46 45° NW 13:21:34 10° NE visible
21 Apr 9.9 14:58:55 10° WNW 15:03:37 22° NNW 15:08:14 10° NE visible
22 Apr 9.5 09:53:56 16° E 09:53:56 16° E 09:56:41 10° ENE visible
22 Apr 7.8 11:37:23 59° S 11:38:28 72° SE 11:44:31 10° NE visible
22 Apr 9.1 13:20:51 16° W 13:25:18 37° NNW 13:30:52 10° NNE visible
22 Apr 10.0 15:08:52 10° NW 15:13:23 21° N 15:17:49 10° NE visible
23 Apr 9.1 10:02:16 23° ESE 10:02:16 23° ESE 10:06:41 10° ENE visible
23 Apr 7.8 11:45:43 45° SW 11:47:46 87° NW 11:53:52 10° NE visible
23 Apr 9.4 13:29:30 10° W 13:34:55 31° NNW 13:40:12 10° NNE visible
23 Apr 10.1 15:18:45 10° NW 15:23:09 20° N 15:27:30 10° NE visible
24 Apr 8.6 10:10:28 31° SE 10:11:06 32° ESE 10:16:24 10° NE visible
24 Apr 8.1 11:53:54 29° WSW 11:57:08 68° NW 12:03:10 10° NE visible
24 Apr 9.7 13:39:27 10° W 13:44:34 27° NNW 13:49:35 10° NE visible
24 Apr 10.2 15:28:31 10° NW 15:32:56 20° N 15:37:17 10° NE visible
25 Apr 8.2 10:18:28 35° SSE 10:20:14 44° ESE 10:25:57 10° NE visible
25 Apr 8.5 12:01:53 17° WSW 12:06:34 53° NW 12:12:29 10° NE visible
25 Apr 9.9 13:49:26 10° WNW 13:54:15 24° NNW 13:59:01 10° NE visible
25 Apr 10.2 15:38:11 10° NW 15:42:43 21° N 15:47:09 10° ENE visible
26 Apr 9.5 08:42:47 12° ESE 08:44:13 13° ESE 08:46:43 10° ENE visible
26 Apr 7.9 10:26:11 28° S 10:29:25 59° ESE 10:35:23 10° NE visible
26 Apr 9.0 12:10:14 10° WSW 12:16:04 42° NW 12:21:47 10° NE visible
26 Apr 10.1 13:59:24 10° WNW 14:04:00 22° NNW 14:08:32 10° NE visible
26 Apr 10.2 15:47:45 10° NW 15:52:28 23° NNE 15:57:05 10° ENE visible
27 Apr 9.2 08:50:03 13° SE 08:53:10 19° ESE 08:57:12 10° ENE visible
27 Apr 7.8 10:33:24 15° SSW 10:38:42 79° SE 10:44:45 10° NE visible
27 Apr 9.3 12:20:04 10° W 12:25:38 35° NNW 12:31:06 10° NNE visible
27 Apr 10.2 14:09:20 10° NW 14:13:46 21° N 14:18:09 10° NE visible
27 Apr 10.1 15:57:14 10° NW 16:02:10 26° NNE 16:07:01 10° ENE visible
